Time,TemperatureF,DewpointF,PressureIn,WindDirection,WindDirectionDegrees,WindSpeedMPH,WindSpeedGustMPH,Humidity,HourlyPrecipIn,Conditions,Clouds,dailyrainin,SoftwareType,DateUTC
2013-08-23 00:01:00,73.3,70.8,30.01,WSW,252,0.0,1.0,92,0.00,,,0.01,VWS V14.01,2013-08-23 04:01:00,
2013-08-23 00:06:00,73.2,70.7,30.00,WSW,253,1.0,1.0,92,0.00,,,0.00,VWS V14.01,2013-08-23 04:06:00,
2013-08-23 00:11:00,73.2,70.7,30.00,NNE,15,0.0,1.0,92,0.00,,,0.00,VWS V14.01,2013-08-23 04:11:00,
2013-08-23 00:16:00,73.3,70.8,30.00,NNE,16,0.0,1.0,92,0.00,,,0.00,VWS V14.01,2013-08-23 04:16:00,
2013-08-23 00:21:00,73.3,70.8,30.00,NNE,16,0.0,1.0,92,0.00,,,0.00,VWS V14.01,2013-08-23 04:21:00,
2013-08-23 00:26:00,73.2,70.7,30.00,NNE,16,0.0,1.0,92,0.00,,,0.00,VWS V14.01,2013-08-23 04:26:00,
2013-08-23 00:31:00,73.1,71.0,30.00,NNE,16,0.0,1.0,93,0.00,,,0.00,VWS V14.01,2013-08-23 04:31:00,
2013-08-23 00:36:00,73.1,71.0,30.00,NW,313,0.0,0.0,93,0.00,,,0.00,VWS V14.01,2013-08-23 04:36:00,
2013-08-23 00:41:00,73.1,71.0,30.00,WNW,299,0.0,0.0,93,0.00,,,0.00,VWS V14.01,2013-08-23 04:41:00,
2013-08-23 00:46:00,73.1,71.0,30.00,NW,308,0.0,0.0,93,0.00,,,0.00,VWS V14.01,2013-08-23 04:46:00,
2013-08-23 00:51:00,73.2,71.1,30.00,WNW,302,0.0,2.0,93,0.00,,,0.00,VWS V14.01,2013-08-23 04:51:00,
2013-08-23 00:56:00,73.3,71.2,30.00,WNW,301,0.0,2.0,93,0.00,,,0.00,VWS V14.01,2013-08-23 04:56:00,
2013-08-23 01:01:00,73.3,71.2,29.99,WNW,302,0.0,2.0,93,0.00,,,0.00,VWS V14.01,2013-08-23 05:01:00,
2013-08-23 01:06:00,73.3,71.2,29.99,NW,310,0.0,1.0,93,0.00,,,0.00,VWS V14.01,2013-08-23 05:06:00,
2013-08-23 01:11:00,73.4,71.6,29.99,NW,307,2.0,2.0,94,0.00,,,0.00,VWS V14.01,2013-08-23 05:11:00,
2013-08-23 01:16:00,73.4,71.6,29.99,NW,306,2.0,3.0,94,0.00,,,0.00,VWS V14.01,2013-08-23 05:16:00,
2013-08-23 01:21:00,73.4,71.6,29.99,WNW,295,1.0,3.0,94,0.00,,,0.00,VWS V14.01,2013-08-23 05:21:00,
2013-08-23 01:26:00,73.5,71.7,29.98,NW,314,0.0,3.0,94,0.00,,,0.00,VWS V14.01,2013-08-23 05:26:00,
2013-08-23 01:31:00,73.4,71.6,29.98,NW,326,0.0,3.0,94,0.00,,,0.00,VWS V14.01,2013-08-23 05:31:00,
2013-08-23 01:36:00,73.4,71.6,29.98,NW,322,1.0,1.0,94,0.00,,,0.00,VWS V14.01,2013-08-23 05:36:00,
2013-08-23 01:41:00,73.3,71.5,29.98,NW,322,0.0,1.0,94,0.00,,,0.00,VWS V14.01,2013-08-23 05:41:00,
2013-08-23 01:46:00,73.3,71.5,29.98,NW,321,0.0,1.0,94,0.00,,,0.00,VWS V14.01,2013-08-23 05:46:00,
2013-08-23 01:51:00,73.1,71.3,29.98,West,281,0.0,1.0,94,0.00,,,0.00,VWS V14.01,2013-08-23 05:51:00,
2013-08-23 01:56:00,72.9,71.1,29.97,West,281,0.0,1.0,94,0.00,,,0.00,VWS V14.01,2013-08-23 05:56:00,
2013-08-23 02:01:00,72.7,70.9,29.97,West,281,0.0,1.0,94,0.00,,,0.00,VWS V14.01,2013-08-23 06:01:00,
2013-08-23 02:06:00,72.7,71.2,29.96,West,262,1.0,1.0,95,0.00,,,0.00,VWS V14.01,2013-08-23 06:06:00,
2013-08-23 02:11:00,72.6,71.1,29.96,WNW,283,0.0,1.0,95,0.00,,,0.00,VWS V14.01,2013-08-23 06:11:00,
2013-08-23 02:16:00,72.7,71.2,29.96,NW,306,1.0,2.0,95,0.00,,,0.00,VWS V14.01,2013-08-23 06:16:00,
2013-08-23 02:21:00,72.8,71.3,29.96,WNW,302,1.0,2.0,95,0.00,,,0.00,VWS V14.01,2013-08-23 06:21:00,
2013-08-23 02:26:00,72.9,71.4,29.96,NW,304,1.0,2.0,95,0.00,,,0.00,VWS V14.01,2013-08-23 06:26:00,
2013-08-23 02:31:00,73.0,71.5,29.95,WNW,298,1.0,2.0,95,0.00,,,0.00,VWS V14.01,2013-08-23 06:31:00,
2013-08-23 02:36:00,73.0,71.5,29.95,WSW,242,1.0,1.0,95,0.00,,,0.00,VWS V14.01,2013-08-23 06:36:00,
2013-08-23 02:41:00,72.6,71.1,29.96,SW,234,0.0,2.0,95,0.00,,,0.00,VWS V14.01,2013-08-23 06:41:00,
2013-08-23 02:46:00,72.6,71.1,29.95,WSW,242,0.0,2.0,95,0.00,,,0.00,VWS V14.01,2013-08-23 06:46:00,
2013-08-23 02:51:00,72.5,71.0,29.95,WNW,284,0.0,2.0,95,0.00,,,0.00,VWS V14.01,2013-08-23 06:51:00,
2013-08-23 02:56:00,72.5,71.0,29.95,WNW,283,0.0,2.0,95,0.00,,,0.00,VWS V14.01,2013-08-23 06:56:00,
2013-08-23 03:01:00,72.5,71.0,29.95,WNW,282,0.0,2.0,95,0.00,,,0.00,VWS V14.01,2013-08-23 07:01:00,
2013-08-23 03:06:00,72.3,70.8,29.95,West,270,0.0,1.0,95,0.00,,,0.00,VWS V14.01,2013-08-23 07:06:00,
2013-08-23 03:11:00,72.3,70.8,29.95,West,271,0.0,1.0,95,0.00,,,0.00,VWS V14.01,2013-08-23 07:11:00,
2013-08-23 03:16:00,72.2,71.0,29.95,West,270,0.0,1.0,96,0.00,,,0.00,VWS V14.01,2013-08-23 07:16:00,
2013-08-23 03:21:00,72.2,71.0,29.94,West,271,0.0,1.0,96,0.00,,,0.00,VWS V14.01,2013-08-23 07:21:00,
2013-08-23 03:26:00,72.2,71.0,29.94,West,271,0.0,1.0,96,0.00,,,0.00,VWS V14.01,2013-08-23 07:26:00,
2013-08-23 03:31:00,72.1,70.9,29.95,West,270,0.0,1.0,96,0.00,,,0.00,VWS V14.01,2013-08-23 07:31:00,
2013-08-23 03:36:00,72.0,70.8,29.94,West,271,0.0,0.0,96,0.00,,,0.00,VWS V14.01,2013-08-23 07:36:00,
2013-08-23 03:41:00,72.0,70.8,29.94,West,269,0.0,0.0,96,0.00,,,0.00,VWS V14.01,2013-08-23 07:41:00,
2013-08-23 03:46:00,71.9,70.7,29.94,West,263,0.0,1.0,96,0.00,,,0.00,VWS V14.01,2013-08-23 07:46:00,
2013-08-23 03:51:00,71.8,70.6,29.94,West,262,0.0,1.0,96,0.00,,,0.00,VWS V14.01,2013-08-23 07:51:00,
2013-08-23 03:56:00,71.8,70.6,29.95,West,262,0.0,1.0,96,0.00,,,0.00,VWS V14.01,2013-08-23 07:56:00,
2013-08-23 04:01:00,71.8,70.6,29.95,West,263,0.0,1.0,96,0.00,,,0.00,VWS V14.01,2013-08-23 08:01:00,
2013-08-23 04:06:00,71.7,70.5,29.94,WSW,237,0.0,0.0,96,0.00,,,0.00,VWS V14.01,2013-08-23 08:06:00,
2013-08-23 04:11:00,71.7,70.2,29.94,WNW,287,0.0,1.0,95,0.00,,,0.00,VWS V14.01,2013-08-23 08:11:00,
2013-08-23 04:16:00,71.6,70.1,29.94,WNW,287,0.0,1.0,95,0.00,,,0.00,VWS V14.01,2013-08-23 08:16:00,
2013-08-23 04:21:00,71.5,70.0,29.94,SW,236,0.0,1.0,95,0.00,,,0.00,VWS V14.01,2013-08-23 08:21:00,
2013-08-23 04:26:00,71.5,70.0,29.94,SW,229,0.0,1.0,95,0.00,,,0.00,VWS V14.01,2013-08-23 08:26:00,
2013-08-23 04:31:00,71.5,70.0,29.94,SW,236,0.0,1.0,95,0.00,,,0.00,VWS V14.01,2013-08-23 08:31:00,
2013-08-23 04:36:00,71.5,70.0,29.95,SW,236,0.0,0.0,95,0.00,,,0.00,VWS V14.01,2013-08-23 08:36:00,
2013-08-23 04:41:00,71.4,69.9,29.95,SW,236,0.0,1.0,95,0.00,,,0.00,VWS V14.01,2013-08-23 08:41:00,
2013-08-23 04:46:00,71.4,69.9,29.95,SW,236,0.0,1.0,95,0.00,,,0.00,VWS V14.01,2013-08-23 08:46:00,
2013-08-23 04:51:00,71.2,69.7,29.95,SW,236,0.0,1.0,95,0.00,,,0.00,VWS V14.01,2013-08-23 08:51:00,
2013-08-23 04:56:00,71.1,69.6,29.95,SW,236,0.0,1.0,95,0.00,,,0.00,VWS V14.01,2013-08-23 08:56:00,
2013-08-23 05:01:00,71.0,69.5,29.95,SW,236,0.0,1.0,95,0.00,,,0.00,VWS V14.01,2013-08-23 09:01:00,
2013-08-23 05:06:00,70.9,69.4,29.95,SW,236,0.0,0.0,95,0.00,,,0.00,VWS V14.01,2013-08-23 09:06:00,
2013-08-23 05:11:00,70.8,69.3,29.95,SW,236,0.0,0.0,95,0.00,,,0.00,VWS V14.01,2013-08-23 09:11:00,
2013-08-23 05:15:00,70.7,69.5,29.95,SW,235,0.0,0.0,96,0.00,,,0.00,VWS V14.01,2013-08-23 09:15:00,
2013-08-23 05:20:00,70.6,69.4,29.95,SW,236,0.0,0.0,96,0.00,,,0.00,VWS V14.01,2013-08-23 09:20:00,
2013-08-23 05:25:00,70.5,69.3,29.95,SW,236,0.0,0.0,96,0.00,,,0.00,VWS V14.01,2013-08-23 09:25:00,
2013-08-23 05:30:00,70.4,69.2,29.95,SW,236,0.0,0.0,96,0.00,,,0.00,VWS V14.01,2013-08-23 09:30:00,
2013-08-23 05:35:00,70.4,69.2,29.95,SW,236,0.0,0.0,96,0.00,,,0.00,VWS V14.01,2013-08-23 09:35:00,
2013-08-23 05:40:00,70.2,69.0,29.95,SW,236,0.0,0.0,96,0.00,,,0.00,VWS V14.01,2013-08-23 09:40:00,
2013-08-23 05:45:00,70.2,69.0,29.95,SW,236,0.0,0.0,96,0.00,,,0.00,VWS V14.01,2013-08-23 09:45:00,
2013-08-23 05:50:00,70.1,68.9,29.95,SW,235,0.0,0.0,96,0.00,,,0.00,VWS V14.01,2013-08-23 09:50:00,
2013-08-23 05:55:00,70.1,68.9,29.96,SW,236,0.0,0.0,96,0.00,,,0.00,VWS V14.01,2013-08-23 09:55:00,
2013-08-23 06:00:00,70.1,68.9,29.96,SW,236,0.0,1.0,96,0.00,,,0.00,VWS V14.01,2013-08-23 10:00:00,
2013-08-23 06:05:00,70.2,69.0,29.96,SW,226,0.0,0.0,96,0.00,,,0.00,VWS V14.01,2013-08-23 10:05:00,
2013-08-23 06:10:00,70.2,69.0,29.96,SW,226,0.0,0.0,96,0.00,,,0.00,VWS V14.01,2013-08-23 10:10:00,
2013-08-23 06:15:00,70.1,68.9,29.96,WSW,252,0.0,0.0,96,0.00,,,0.00,VWS V14.01,2013-08-23 10:15:00,
2013-08-23 06:20:00,70.2,69.0,29.97,SW,235,0.0,0.0,96,0.00,,,0.00,VWS V14.01,2013-08-23 10:20:00,
2013-08-23 06:25:00,70.1,68.9,29.97,SW,225,0.0,1.0,96,0.00,,,0.00,VWS V14.01,2013-08-23 10:25:00,
2013-08-23 06:30:00,70.1,68.9,29.97,SW,224,0.0,1.0,96,0.00,,,0.00,VWS V14.01,2013-08-23 10:30:00,
2013-08-23 06:35:00,70.0,68.8,29.97,SW,225,0.0,0.0,96,0.00,,,0.00,VWS V14.01,2013-08-23 10:35:00,
2013-08-23 06:40:00,70.1,68.9,29.97,WSW,248,0.0,1.0,96,0.00,,,0.00,VWS V14.01,2013-08-23 10:40:00,
2013-08-23 06:45:00,70.1,69.2,29.97,WSW,245,0.0,1.0,97,0.00,,,0.00,VWS V14.01,2013-08-23 10:45:00,
2013-08-23 06:50:00,70.1,68.9,29.97,WSW,242,1.0,1.0,96,0.00,,,0.00,VWS V14.01,2013-08-23 10:50:00,
2013-08-23 06:55:00,70.0,68.8,29.98,SW,227,1.0,1.0,96,0.00,,,0.00,VWS V14.01,2013-08-23 10:55:00,
2013-08-23 07:00:00,69.9,68.7,29.98,SW,223,0.0,1.0,96,0.00,,,0.00,VWS V14.01,2013-08-23 11:00:00,
2013-08-23 07:05:00,70.0,68.8,29.98,SW,226,1.0,1.0,96,0.00,,,0.00,VWS V14.01,2013-08-23 11:05:00,
2013-08-23 07:10:00,70.1,69.2,29.98,SW,232,1.0,1.0,97,0.00,,,0.00,VWS V14.01,2013-08-23 11:10:00,
2013-08-23 07:15:00,70.3,69.1,29.98,WSW,237,0.0,1.0,96,0.00,,,0.00,VWS V14.01,2013-08-23 11:15:00,
2013-08-23 07:20:00,70.4,69.2,29.99,SW,235,0.0,1.0,96,0.00,,,0.00,VWS V14.01,2013-08-23 11:20:00,
2013-08-23 07:25:00,70.5,69.3,29.99,SW,236,0.0,1.0,96,0.00,,,0.00,VWS V14.01,2013-08-23 11:25:00,
2013-08-23 07:30:00,70.8,69.6,29.98,SW,236,0.0,1.0,96,0.00,,,0.00,VWS V14.01,2013-08-23 11:30:00,
2013-08-23 07:35:00,71.0,69.8,29.98,SSW,207,0.0,0.0,96,0.00,,,0.00,VWS V14.01,2013-08-23 11:35:00,
2013-08-23 07:40:00,71.2,70.0,29.99,WSW,242,1.0,1.0,96,0.00,,,0.00,VWS V14.01,2013-08-23 11:40:00,
2013-08-23 07:45:00,71.4,69.9,29.99,WSW,256,0.0,2.0,95,0.00,,,0.00,VWS V14.01,2013-08-23 11:45:00,
2013-08-23 07:50:00,71.5,69.7,29.99,NW,313,1.0,3.0,94,0.00,,,0.00,VWS V14.01,2013-08-23 11:50:00,
2013-08-23 07:55:00,71.5,69.7,29.99,WNW,287,1.0,3.0,94,0.00,,,0.00,VWS V14.01,2013-08-23 11:55:00,
2013-08-23 08:00:00,71.7,69.6,29.99,WNW,284,0.0,3.0,93,0.00,,,0.00,VWS V14.01,2013-08-23 12:00:00,
2013-08-23 08:05:00,72.0,69.6,29.99,WNW,301,1.0,1.0,92,0.00,,,0.00,VWS V14.01,2013-08-23 12:05:00,
2013-08-23 08:10:00,72.4,69.9,29.99,West,269,1.0,2.0,92,0.00,,,0.00,VWS V14.01,2013-08-23 12:10:00,
2013-08-23 08:15:00,72.7,69.9,29.99,West,270,2.0,3.0,91,0.00,,,0.00,VWS V14.01,2013-08-23 12:15:00,
2013-08-23 08:20:00,73.0,70.2,29.99,WSW,242,0.0,3.0,91,0.00,,,0.00,VWS V14.01,2013-08-23 12:20:00,
2013-08-23 08:25:00,73.2,70.1,30.00,WSW,256,0.0,4.0,90,0.00,,,0.00,VWS V14.01,2013-08-23 12:25:00,
2013-08-23 08:30:00,73.3,70.2,29.99,West,260,1.0,4.0,90,0.00,,,0.00,VWS V14.01,2013-08-23 12:30:00,
2013-08-23 08:35:00,73.4,70.3,29.99,WSW,254,0.0,1.0,90,0.00,,,0.00,VWS V14.01,2013-08-23 12:35:00,
2013-08-23 08:40:00,73.6,70.2,29.99,WSW,250,0.0,2.0,89,0.00,,,0.00,VWS V14.01,2013-08-23 12:40:00,
2013-08-23 08:45:00,73.8,70.4,29.99,WSW,250,0.0,2.0,89,0.00,,,0.00,VWS V14.01,2013-08-23 12:45:00,
2013-08-23 08:50:00,74.1,70.7,29.99,WNW,303,0.0,2.0,89,0.00,,,0.00,VWS V14.01,2013-08-23 12:50:00,
2013-08-23 08:55:00,74.6,70.8,29.99,NW,321,0.0,2.0,88,0.00,,,0.00,VWS V14.01,2013-08-23 12:55:00,
2013-08-23 09:00:00,75.1,70.6,29.99,SW,233,1.0,2.0,86,0.00,,,0.00,VWS V14.01,2013-08-23 13:00:00,
2013-08-23 09:05:00,75.6,71.1,29.99,NW,318,2.0,2.0,86,0.00,,,0.00,VWS V14.01,2013-08-23 13:05:00,
2013-08-23 09:10:00,75.7,70.5,29.99,WNW,286,1.0,3.0,84,0.00,,,0.00,VWS V14.01,2013-08-23 13:10:00,
2013-08-23 09:15:00,75.9,71.1,29.98,NW,307,2.0,3.0,85,0.00,,,0.00,VWS V14.01,2013-08-23 13:15:00,
2013-08-23 09:20:00,76.2,71.0,29.98,West,279,1.0,3.0,84,0.00,,,0.00,VWS V14.01,2013-08-23 13:20:00,
2013-08-23 09:25:00,76.5,70.6,29.98,NW,311,2.0,5.0,82,0.00,,,0.00,VWS V14.01,2013-08-23 13:25:00,
2013-08-23 09:30:00,76.5,70.6,29.98,WNW,298,2.0,5.0,82,0.00,,,0.00,VWS V14.01,2013-08-23 13:30:00,
2013-08-23 09:35:00,76.8,70.9,29.98,NW,309,4.0,4.0,82,0.00,,,0.00,VWS V14.01,2013-08-23 13:35:00,
2013-08-23 09:40:00,77.2,71.3,29.98,WNW,292,2.0,4.0,82,0.00,,,0.00,VWS V14.01,2013-08-23 13:40:00,
2013-08-23 09:45:00,77.6,71.7,29.98,WNW,300,2.0,4.0,82,0.00,,,0.00,VWS V14.01,2013-08-23 13:45:00,
2013-08-23 09:50:00,78.0,71.7,29.98,WNW,302,3.0,5.0,81,0.00,,,0.00,VWS V14.01,2013-08-23 13:50:00,
2013-08-23 09:55:00,78.2,71.9,29.98,WNW,292,2.0,5.0,81,0.00,,,0.00,VWS V14.01,2013-08-23 13:55:00,
2013-08-23 10:00:00,78.3,72.0,29.99,WNW,283,0.0,5.0,81,0.00,,,0.00,VWS V14.01,2013-08-23 14:00:00,
2013-08-23 10:05:00,78.9,71.8,29.98,WNW,292,2.0,3.0,79,0.00,,,0.00,VWS V14.01,2013-08-23 14:05:00,
2013-08-23 10:10:00,79.3,72.2,29.98,West,277,0.0,3.0,79,0.00,,,0.00,VWS V14.01,2013-08-23 14:10:00,
2013-08-23 10:15:00,79.5,72.0,29.99,West,280,2.0,4.0,78,0.00,,,0.00,VWS V14.01,2013-08-23 14:15:00,
2013-08-23 10:20:00,79.5,72.8,29.99,WNW,296,1.0,4.0,80,0.00,,,0.00,VWS V14.01,2013-08-23 14:20:00,
2013-08-23 10:25:00,79.6,72.5,29.99,WSW,237,0.0,4.0,79,0.00,,,0.00,VWS V14.01,2013-08-23 14:25:00,
2013-08-23 10:30:00,79.5,73.2,29.99,WSW,237,2.0,4.0,81,0.00,,,0.00,VWS V14.01,2013-08-23 14:30:00,
2013-08-23 10:35:00,79.5,73.2,29.99,WSW,253,0.0,0.0,81,0.00,,,0.00,VWS V14.01,2013-08-23 14:35:00,
2013-08-23 10:40:00,79.5,72.8,30.00,WSW,249,1.0,2.0,80,0.00,,,0.00,VWS V14.01,2013-08-23 14:40:00,
2013-08-23 10:45:00,79.4,72.7,30.00,SW,230,1.0,2.0,80,0.00,,,0.00,VWS V14.01,2013-08-23 14:45:00,
2013-08-23 10:50:00,79.7,73.4,30.00,NW,311,0.0,2.0,81,0.00,,,0.00,VWS V14.01,2013-08-23 14:50:00,
2013-08-23 10:55:00,80.5,73.8,30.00,SW,234,1.0,2.0,80,0.00,,,0.00,VWS V14.01,2013-08-23 14:55:00,
2013-08-23 11:00:00,80.7,73.6,30.00,WSW,237,2.0,3.0,79,0.00,,,0.00,VWS V14.01,2013-08-23 15:00:00,
2013-08-23 11:05:00,80.6,73.5,30.00,WSW,250,1.0,3.0,79,0.00,,,0.00,VWS V14.01,2013-08-23 15:05:00,
2013-08-23 11:10:00,80.4,73.3,30.00,WNW,287,0.0,3.0,79,0.00,,,0.00,VWS V14.01,2013-08-23 15:10:00,
2013-08-23 11:15:00,80.8,73.7,30.00,WSW,244,1.0,3.0,79,0.00,,,0.00,VWS V14.01,2013-08-23 15:15:00,
2013-08-23 11:20:00,80.7,73.2,30.00,WSW,244,2.0,3.0,78,0.00,,,0.00,VWS V14.01,2013-08-23 15:20:00,
2013-08-23 11:25:00,81.0,73.5,30.00,West,264,0.0,3.0,78,0.00,,,0.00,VWS V14.01,2013-08-23 15:25:00,
2013-08-23 11:30:00,81.3,73.0,30.00,WNW,296,2.0,3.0,76,0.00,,,0.00,VWS V14.01,2013-08-23 15:30:00,
2013-08-23 11:35:00,81.9,73.6,29.99,WSW,237,1.0,2.0,76,0.00,,,0.00,VWS V14.01,2013-08-23 15:35:00,
2013-08-23 11:40:00,82.2,73.5,29.99,SSW,209,0.0,3.0,75,0.00,,,0.00,VWS V14.01,2013-08-23 15:40:00,
2013-08-23 11:45:00,82.5,73.4,29.99,WSW,245,2.0,3.0,74,0.00,,,0.00,VWS V14.01,2013-08-23 15:45:00,
2013-08-23 11:50:00,82.7,74.0,29.99,South,188,2.0,3.0,75,0.00,,,0.00,VWS V14.01,2013-08-23 15:50:00,
2013-08-23 11:55:00,82.8,74.1,29.99,West,269,0.0,3.0,75,0.00,,,0.00,VWS V14.01,2013-08-23 15:55:00,
2013-08-23 12:00:00,82.8,74.1,29.99,WNW,286,1.0,3.0,75,0.00,,,0.00,VWS V14.01,2013-08-23 16:00:00,
2013-08-23 12:04:00,82.8,74.1,29.99,West,260,1.0,1.0,75,0.00,,,0.00,VWS V14.01,2013-08-23 16:04:00,
2013-08-23 12:09:00,83.0,73.9,29.99,WNW,294,5.0,5.0,74,0.00,,,0.00,VWS V14.01,2013-08-23 16:09:00,
2013-08-23 12:14:00,83.1,74.0,29.99,West,265,1.0,5.0,74,0.00,,,0.00,VWS V14.01,2013-08-23 16:14:00,
2013-08-23 12:19:00,83.5,73.5,29.98,WSW,242,0.0,5.0,72,0.00,,,0.00,VWS V14.01,2013-08-23 16:19:00,
2013-08-23 12:24:00,84.2,73.8,29.98,WNW,294,3.0,5.0,71,0.00,,,0.00,VWS V14.01,2013-08-23 16:24:00,
2013-08-23 12:29:00,84.4,73.1,29.98,NW,315,0.0,5.0,69,0.00,,,0.00,VWS V14.01,2013-08-23 16:29:00,
2013-08-23 12:34:00,85.4,72.8,29.98,WNW,289,1.0,1.0,66,0.00,,,0.00,VWS V14.01,2013-08-23 16:34:00,
2013-08-23 12:39:00,85.2,73.4,29.98,WSW,241,1.0,3.0,68,0.00,,,0.00,VWS V14.01,2013-08-23 16:39:00,
2013-08-23 12:44:00,85.2,74.3,29.98,SW,227,2.0,3.0,70,0.00,,,0.00,VWS V14.01,2013-08-23 16:44:00,
2013-08-23 12:49:00,86.0,73.8,29.97,WNW,294,2.0,3.0,67,0.00,,,0.00,VWS V14.01,2013-08-23 16:49:00,
2013-08-23 12:54:00,86.7,73.5,29.97,NW,306,2.0,3.0,65,0.00,,,0.00,VWS V14.01,2013-08-23 16:54:00,
2013-08-23 12:59:00,86.1,72.5,29.97,WNW,295,2.0,4.0,64,0.00,,,0.00,VWS V14.01,2013-08-23 16:59:00,
2013-08-23 13:04:00,85.7,73.0,29.97,NW,321,1.0,1.0,66,0.00,,,0.00,VWS V14.01,2013-08-23 17:04:00,
2013-08-23 13:09:00,86.5,73.3,29.97,SW,234,1.0,1.0,65,0.00,,,0.00,VWS V14.01,2013-08-23 17:09:00,
2013-08-23 13:14:00,86.6,74.3,29.97,West,273,2.0,3.0,67,0.00,,,0.00,VWS V14.01,2013-08-23 17:14:00,
2013-08-23 13:19:00,86.1,72.5,29.97,WSW,237,1.0,3.0,64,0.00,,,0.00,VWS V14.01,2013-08-23 17:19:00,
2013-08-23 13:24:00,86.0,73.3,29.97,NW,315,3.0,3.0,66,0.00,,,0.00,VWS V14.01,2013-08-23 17:24:00,
2013-08-23 13:29:00,85.7,73.0,29.96,West,280,1.0,4.0,66,0.00,,,0.00,VWS V14.01,2013-08-23 17:29:00,
2013-08-23 13:34:00,85.5,72.4,29.96,ESE,119,2.0,4.0,65,0.00,,,0.00,VWS V14.01,2013-08-23 17:34:00,
2013-08-23 13:39:00,86.1,72.5,29.96,NW,321,3.0,4.0,64,0.00,,,0.00,VWS V14.01,2013-08-23 17:39:00,
2013-08-23 13:44:00,86.2,71.7,29.96,West,271,1.0,5.0,62,0.00,,,0.00,VWS V14.01,2013-08-23 17:44:00,
2013-08-23 13:49:00,86.4,72.8,29.95,WSW,239,2.0,5.0,64,0.00,,,0.00,VWS V14.01,2013-08-23 17:49:00,
2013-08-23 13:54:00,86.3,72.2,29.95,WSW,245,2.0,5.0,63,0.00,,,0.00,VWS V14.01,2013-08-23 17:54:00,
2013-08-23 13:59:00,86.4,72.8,29.95,SW,234,0.0,5.0,64,0.00,,,0.00,VWS V14.01,2013-08-23 17:59:00,
2013-08-23 14:04:00,86.7,72.1,29.95,WNW,286,2.0,5.0,62,0.00,,,0.00,VWS V14.01,2013-08-23 18:04:00,
2013-08-23 14:09:00,86.6,73.0,29.95,SW,215,2.0,3.0,64,0.00,,,0.00,VWS V14.01,2013-08-23 18:09:00,
2013-08-23 14:14:00,86.6,73.4,29.95,NW,309,3.0,3.0,65,0.00,,,0.00,VWS V14.01,2013-08-23 18:14:00,
2013-08-23 14:19:00,86.5,72.9,29.95,WNW,294,3.0,4.0,64,0.00,,,0.00,VWS V14.01,2013-08-23 18:19:00,
2013-08-23 14:24:00,86.5,72.9,29.94,West,273,1.0,4.0,64,0.00,,,0.00,VWS V14.01,2013-08-23 18:24:00,
2013-08-23 14:29:00,86.6,73.0,29.94,NW,311,2.0,4.0,64,0.00,,,0.00,VWS V14.01,2013-08-23 18:29:00,
2013-08-23 14:34:00,86.9,73.3,29.94,WNW,287,0.0,4.0,64,0.00,,,0.00,VWS V14.01,2013-08-23 18:34:00,
2013-08-23 14:39:00,87.0,73.4,29.94,WSW,254,2.0,2.0,64,0.00,,,0.00,VWS V14.01,2013-08-23 18:39:00,
2013-08-23 14:44:00,87.2,73.1,29.94,WNW,303,4.0,4.0,63,0.00,,,0.00,VWS V14.01,2013-08-23 18:44:00,
2013-08-23 14:49:00,87.1,73.0,29.94,West,265,1.0,5.0,63,0.00,,,0.00,VWS V14.01,2013-08-23 18:49:00,
2013-08-23 14:54:00,87.2,72.1,29.93,WSW,254,1.0,5.0,61,0.00,,,0.00,VWS V14.01,2013-08-23 18:54:00,
2013-08-23 14:59:00,87.5,72.9,29.93,SW,236,1.0,5.0,62,0.00,,,0.00,VWS V14.01,2013-08-23 18:59:00,
2013-08-23 15:04:00,87.6,73.0,29.93,WNW,283,2.0,5.0,62,0.00,,,0.00,VWS V14.01,2013-08-23 19:04:00,
2013-08-23 15:09:00,87.1,73.0,29.92,WSW,246,2.0,5.0,63,0.00,,,0.00,VWS V14.01,2013-08-23 19:09:00,
2013-08-23 15:14:00,87.1,72.5,29.92,West,281,4.0,5.0,62,0.00,,,0.00,VWS V14.01,2013-08-23 19:14:00,
2013-08-23 15:19:00,87.0,72.9,29.92,WNW,290,4.0,5.0,63,0.00,,,0.00,VWS V14.01,2013-08-23 19:19:00,
2013-08-23 15:24:00,87.4,73.3,29.92,West,260,2.0,5.0,63,0.00,,,0.00,VWS V14.01,2013-08-23 19:24:00,
2013-08-23 15:29:00,87.2,72.1,29.92,NW,322,3.0,5.0,61,0.00,,,0.00,VWS V14.01,2013-08-23 19:29:00,
2013-08-23 15:34:00,87.1,72.5,29.91,WSW,254,1.0,5.0,62,0.00,,,0.00,VWS V14.01,2013-08-23 19:34:00,
2013-08-23 15:39:00,87.2,73.1,29.91,West,264,1.0,3.0,63,0.00,,,0.00,VWS V14.01,2013-08-23 19:39:00,
2013-08-23 15:44:00,87.1,72.5,29.91,SW,223,1.0,3.0,62,0.00,,,0.00,VWS V14.01,2013-08-23 19:44:00,
2013-08-23 15:49:00,87.4,72.3,29.91,West,278,3.0,5.0,61,0.00,,,0.00,VWS V14.01,2013-08-23 19:49:00,
2013-08-23 15:54:00,87.2,72.6,29.91,West,260,0.0,5.0,62,0.00,,,0.00,VWS V14.01,2013-08-23 19:54:00,
2013-08-23 15:59:00,86.8,71.8,29.91,NNW,328,1.0,5.0,61,0.00,,,0.00,VWS V14.01,2013-08-23 19:59:00,
2013-08-23 16:04:00,86.5,71.9,29.91,SW,232,0.0,5.0,62,0.00,,,0.00,VWS V14.01,2013-08-23 20:04:00,
2013-08-23 16:09:00,86.5,73.3,29.91,SW,225,1.0,2.0,65,0.00,,,0.00,VWS V14.01,2013-08-23 20:09:00,
2013-08-23 16:14:00,86.3,73.2,29.91,WSW,238,1.0,2.0,65,0.00,,,0.00,VWS V14.01,2013-08-23 20:14:00,
2013-08-23 16:19:00,86.2,73.5,29.91,WSW,238,0.0,2.0,66,0.00,,,0.00,VWS V14.01,2013-08-23 20:19:00,
2013-08-23 16:24:00,86.5,74.2,29.91,West,280,0.0,2.0,67,0.00,,,0.00,VWS V14.01,2013-08-23 20:24:00,
2013-08-23 16:29:00,87.0,74.3,29.91,WSW,254,0.0,2.0,66,0.00,,,0.00,VWS V14.01,2013-08-23 20:29:00,
2013-08-23 16:34:00,87.2,74.0,29.91,West,264,2.0,2.0,65,0.00,,,0.00,VWS V14.01,2013-08-23 20:34:00,
2013-08-23 16:39:00,87.0,73.4,29.91,NW,304,0.0,2.0,64,0.00,,,0.00,VWS V14.01,2013-08-23 20:39:00,
2013-08-23 16:44:00,86.3,73.2,29.91,WSW,252,1.0,2.0,65,0.00,,,0.00,VWS V14.01,2013-08-23 20:44:00,
2013-08-23 16:49:00,85.9,73.7,29.91,WNW,302,1.0,3.0,67,0.00,,,0.00,VWS V14.01,2013-08-23 20:49:00,
2013-08-23 16:54:00,85.6,73.8,29.91,West,263,1.0,3.0,68,0.00,,,0.00,VWS V14.01,2013-08-23 20:54:00,
2013-08-23 16:59:00,86.0,74.2,29.90,NW,309,2.0,3.0,68,0.00,,,0.00,VWS V14.01,2013-08-23 20:59:00,
2013-08-23 17:04:00,86.2,74.0,29.90,West,267,1.0,4.0,67,0.00,,,0.00,VWS V14.01,2013-08-23 21:04:00,
2013-08-23 17:09:00,86.4,73.7,29.90,NW,319,1.0,4.0,66,0.00,,,0.00,VWS V14.01,2013-08-23 21:09:00,
2013-08-23 17:14:00,86.0,74.2,29.90,WSW,246,3.0,4.0,68,0.00,,,0.00,VWS V14.01,2013-08-23 21:14:00,
2013-08-23 17:19:00,84.7,74.3,29.90,WSW,240,2.0,4.0,71,0.00,,,0.00,VWS V14.01,2013-08-23 21:19:00,
2013-08-23 17:24:00,83.8,74.2,29.90,SW,226,1.0,4.0,73,0.00,,,0.00,VWS V14.01,2013-08-23 21:24:00,
2013-08-23 17:29:00,83.5,74.3,29.90,WSW,237,0.0,4.0,74,0.00,,,0.00,VWS V14.01,2013-08-23 21:29:00,
2013-08-23 17:34:00,83.4,74.7,29.90,SW,225,0.0,4.0,75,0.00,,,0.00,VWS V14.01,2013-08-23 21:34:00,
2013-08-23 17:39:00,83.4,75.1,29.90,WSW,237,0.0,1.0,76,0.00,,,0.00,VWS V14.01,2013-08-23 21:39:00,
2013-08-23 17:44:00,83.5,74.8,29.91,West,269,0.0,1.0,75,0.00,,,0.00,VWS V14.01,2013-08-23 21:44:00,
2013-08-23 17:49:00,83.6,75.2,29.91,WSW,240,0.0,1.0,76,0.00,,,0.00,VWS V14.01,2013-08-23 21:49:00,
2013-08-23 17:54:00,83.7,74.9,29.91,WSW,244,0.0,1.0,75,0.00,,,0.00,VWS V14.01,2013-08-23 21:54:00,
2013-08-23 17:58:00,83.8,75.4,29.91,WSW,254,1.0,1.0,76,0.00,,,0.00,VWS V14.01,2013-08-23 21:58:00,
2013-08-23 18:03:00,83.8,75.4,29.91,WSW,247,0.0,1.0,76,0.00,,,0.00,VWS V14.01,2013-08-23 22:03:00,
2013-08-23 18:08:00,83.7,76.1,29.92,WSW,241,0.0,1.0,78,0.00,,,0.00,VWS V14.01,2013-08-23 22:08:00,
2013-08-23 18:13:00,83.6,76.0,29.92,WNW,283,0.0,1.0,78,0.00,,,0.00,VWS V14.01,2013-08-23 22:13:00,
2013-08-23 18:18:00,83.5,75.5,29.92,West,276,0.0,1.0,77,0.00,,,0.00,VWS V14.01,2013-08-23 22:18:00,
2013-08-23 18:23:00,83.6,76.0,29.92,WSW,246,0.0,1.0,78,0.00,,,0.00,VWS V14.01,2013-08-23 22:23:00,
2013-08-23 18:28:00,83.5,76.3,29.92,West,267,0.0,1.0,79,0.00,,,0.00,VWS V14.01,2013-08-23 22:28:00,
2013-08-23 18:33:00,83.5,75.9,29.92,WSW,245,0.0,1.0,78,0.00,,,0.00,VWS V14.01,2013-08-23 22:33:00,
2013-08-23 18:38:00,83.4,75.1,29.92,NW,304,3.0,3.0,76,0.00,,,0.00,VWS V14.01,2013-08-23 22:38:00,
2013-08-23 18:43:00,83.3,75.3,29.92,WSW,249,0.0,3.0,77,0.00,,,0.00,VWS V14.01,2013-08-23 22:43:00,
2013-08-23 18:48:00,83.2,76.0,29.92,WSW,248,0.0,3.0,79,0.00,,,0.00,VWS V14.01,2013-08-23 22:48:00,
2013-08-23 18:53:00,82.8,76.0,29.92,WSW,242,0.0,3.0,80,0.00,,,0.00,VWS V14.01,2013-08-23 22:53:00,
2013-08-23 18:58:00,82.5,76.4,29.92,West,269,0.0,3.0,82,0.00,,,0.00,VWS V14.01,2013-08-23 22:58:00,
2013-08-23 19:03:00,82.2,76.5,29.93,West,267,1.0,3.0,83,0.00,,,0.00,VWS V14.01,2013-08-23 23:03:00,
2013-08-23 19:08:00,81.9,76.2,29.93,WSW,256,0.0,0.0,83,0.00,,,0.00,VWS V14.01,2013-08-23 23:08:00,
2013-08-23 19:13:00,81.8,76.1,29.93,WNW,296,0.0,1.0,83,0.00,,,0.00,VWS V14.01,2013-08-23 23:13:00,
2013-08-23 19:18:00,81.8,75.4,29.94,WNW,295,1.0,2.0,81,0.00,,,0.00,VWS V14.01,2013-08-23 23:18:00,
2013-08-23 19:23:00,81.9,75.5,29.94,West,273,0.0,2.0,81,0.00,,,0.00,VWS V14.01,2013-08-23 23:23:00,
2013-08-23 19:28:00,81.8,75.0,29.94,NW,307,0.0,2.0,80,0.00,,,0.00,VWS V14.01,2013-08-23 23:28:00,
2013-08-23 19:33:00,81.8,75.4,29.94,West,275,1.0,2.0,81,0.00,,,0.00,VWS V14.01,2013-08-23 23:33:00,
2013-08-23 19:38:00,81.7,74.9,29.94,WNW,301,2.0,2.0,80,0.00,,,0.00,VWS V14.01,2013-08-23 23:38:00,
2013-08-23 19:43:00,81.6,74.8,29.94,NW,318,1.0,3.0,80,0.00,,,0.00,VWS V14.01,2013-08-23 23:43:00,
2013-08-23 19:48:00,81.7,74.6,29.94,NNE,26,0.0,3.0,79,0.00,,,0.00,VWS V14.01,2013-08-23 23:48:00,
2013-08-23 19:53:00,81.3,74.5,29.94,NNW,336,0.0,3.0,80,0.00,,,0.00,VWS V14.01,2013-08-23 23:53:00,
2013-08-23 19:58:00,81.3,74.5,29.94,NNW,333,1.0,3.0,80,0.00,,,0.00,VWS V14.01,2013-08-23 23:58:00,
2013-08-23 20:03:00,81.1,74.3,29.95,NNE,19,1.0,3.0,80,0.00,,,0.00,VWS V14.01,2013-08-24 00:03:00,
2013-08-23 20:08:00,81.0,74.2,29.95,NW,312,0.0,1.0,80,0.00,,,0.00,VWS V14.01,2013-08-24 00:08:00,
2013-08-23 20:13:00,80.6,74.2,29.95,NW,310,1.0,1.0,81,0.00,,,0.00,VWS V14.01,2013-08-24 00:13:00,
2013-08-23 20:18:00,80.4,74.4,29.95,NNE,17,0.0,3.0,82,0.00,,,0.00,VWS V14.01,2013-08-24 00:18:00,
2013-08-23 20:23:00,80.4,74.0,29.95,WNW,298,2.0,4.0,81,0.00,,,0.00,VWS V14.01,2013-08-24 00:23:00,
2013-08-23 20:28:00,80.2,73.1,29.96,North,5,2.0,8.0,79,0.00,,,0.00,VWS V14.01,2013-08-24 00:28:00,
2013-08-23 20:33:00,79.8,72.3,29.96,NW,321,1.0,8.0,78,0.00,,,0.00,VWS V14.01,2013-08-24 00:33:00,
2013-08-23 20:38:00,79.4,70.8,29.96,NNW,333,2.0,6.0,75,0.00,,,0.00,VWS V14.01,2013-08-24 00:38:00,
2013-08-23 20:43:00,78.9,69.5,29.97,NW,318,3.0,9.0,73,0.00,,,0.00,VWS V14.01,2013-08-24 00:43:00,
2013-08-23 20:48:00,78.4,69.4,29.97,West,277,3.0,9.0,74,0.00,,,0.00,VWS V14.01,2013-08-24 00:48:00,
2013-08-23 20:53:00,77.8,69.6,29.98,NNW,336,2.0,9.0,76,0.00,,,0.00,VWS V14.01,2013-08-24 00:53:00,
2013-08-23 20:58:00,77.2,69.4,29.98,NNE,16,1.0,9.0,77,0.00,,,0.00,VWS V14.01,2013-08-24 00:58:00,
2013-08-23 21:03:00,77.0,69.2,29.99,NW,325,4.0,9.0,77,0.00,,,0.00,VWS V14.01,2013-08-24 01:03:00,
2013-08-23 21:08:00,76.4,69.4,29.99,NNW,342,4.0,7.0,79,0.00,,,0.00,VWS V14.01,2013-08-24 01:08:00,
2013-08-23 21:13:00,75.9,69.3,30.00,NW,320,2.0,7.0,80,0.00,,,0.00,VWS V14.01,2013-08-24 01:13:00,
2013-08-23 21:18:00,75.5,69.6,30.00,NNW,337,3.0,7.0,82,0.00,,,0.00,VWS V14.01,2013-08-24 01:18:00,
2013-08-23 21:23:00,75.3,69.8,30.00,NE,39,2.0,7.0,83,0.00,,,0.00,VWS V14.01,2013-08-24 01:23:00,
2013-08-23 21:28:00,75.1,69.9,30.00,NW,317,1.0,7.0,84,0.00,,,0.00,VWS V14.01,2013-08-24 01:28:00,
2013-08-23 21:33:00,74.8,70.0,30.01,North,5,2.0,7.0,85,0.00,,,0.00,VWS V14.01,2013-08-24 01:33:00,
2013-08-23 21:38:00,74.6,70.1,30.01,NW,323,0.0,3.0,86,0.00,,,0.00,VWS V14.01,2013-08-24 01:38:00,
2013-08-23 21:43:00,74.8,70.3,30.01,NNE,20,1.0,3.0,86,0.00,,,0.00,VWS V14.01,2013-08-24 01:43:00,
2013-08-23 21:48:00,74.8,70.3,30.01,NNW,334,1.0,3.0,86,0.00,,,0.00,VWS V14.01,2013-08-24 01:48:00,
2013-08-23 21:53:00,74.5,70.4,30.01,NW,317,0.0,7.0,87,0.00,,,0.00,VWS V14.01,2013-08-24 01:53:00,
2013-08-23 21:58:00,74.5,70.4,30.01,East,83,2.0,7.0,87,0.00,,,0.00,VWS V14.01,2013-08-24 01:58:00,
2013-08-23 22:03:00,74.5,70.4,30.01,ENE,63,7.0,7.0,87,0.00,,,0.00,VWS V14.01,2013-08-24 02:03:00,
2013-08-23 22:08:00,74.4,70.3,30.01,NNE,21,2.0,2.0,87,0.00,,,0.00,VWS V14.01,2013-08-24 02:08:00,
2013-08-23 22:13:00,74.2,70.1,30.01,NNW,335,2.0,3.0,87,0.00,,,0.00,VWS V14.01,2013-08-24 02:13:00,
2013-08-23 22:18:00,74.2,70.1,30.01,NNE,15,3.0,3.0,87,0.00,,,0.00,VWS V14.01,2013-08-24 02:18:00,
2013-08-23 22:23:00,74.3,70.2,30.01,NW,315,0.0,4.0,87,0.00,,,0.00,VWS V14.01,2013-08-24 02:23:00,
2013-08-23 22:28:00,74.2,70.4,30.01,NW,312,0.0,4.0,88,0.00,,,0.00,VWS V14.01,2013-08-24 02:28:00,
2013-08-23 22:33:00,74.1,70.3,30.01,NNE,23,0.0,4.0,88,0.00,,,0.00,VWS V14.01,2013-08-24 02:33:00,
2013-08-23 22:38:00,74.2,70.4,30.02,NNW,344,1.0,2.0,88,0.00,,,0.00,VWS V14.01,2013-08-24 02:38:00,
2013-08-23 22:43:00,74.1,70.3,30.02,NNE,26,0.0,2.0,88,0.00,,,0.00,VWS V14.01,2013-08-24 02:43:00,
2013-08-23 22:48:00,74.1,70.7,30.02,NNE,17,1.0,2.0,89,0.00,,,0.00,VWS V14.01,2013-08-24 02:48:00,
2013-08-23 22:53:00,74.2,70.4,30.02,NNE,22,1.0,2.0,88,0.00,,,0.00,VWS V14.01,2013-08-24 02:53:00,
2013-08-23 22:58:00,74.4,70.6,30.02,NNE,32,0.0,4.0,88,0.00,,,0.00,VWS V14.01,2013-08-24 02:58:00,
2013-08-23 23:03:00,74.1,70.3,30.03,NE,43,2.0,7.0,88,0.00,,,0.00,VWS V14.01,2013-08-24 03:03:00,
2013-08-23 23:08:00,73.7,70.3,30.03,NNE,32,2.0,4.0,89,0.00,,,0.00,VWS V14.01,2013-08-24 03:08:00,
2013-08-23 23:13:00,73.0,69.6,30.03,WNW,299,2.0,6.0,89,0.00,,,0.00,VWS V14.01,2013-08-24 03:13:00,
2013-08-23 23:18:00,72.4,69.3,30.02,NNW,329,2.0,6.0,90,0.00,,,0.00,VWS V14.01,2013-08-24 03:18:00,
2013-08-23 23:23:00,72.0,68.9,30.02,NNW,330,3.0,6.0,90,0.00,,,0.00,VWS V14.01,2013-08-24 03:23:00,
2013-08-23 23:28:00,71.6,68.8,30.03,NE,55,2.0,6.0,91,0.00,,,0.00,VWS V14.01,2013-08-24 03:28:00,
2013-08-23 23:33:00,71.4,68.6,30.03,NNW,328,2.0,6.0,91,0.00,,,0.00,VWS V14.01,2013-08-24 03:33:00,
2013-08-23 23:38:00,71.1,68.3,30.03,North,349,1.0,4.0,91,0.00,,,0.00,VWS V14.01,2013-08-24 03:38:00,
2013-08-23 23:43:00,70.8,68.1,30.03,NNW,344,2.0,6.0,91,0.00,,,0.00,VWS V14.01,2013-08-24 03:43:00,
2013-08-23 23:48:00,70.6,68.2,30.03,NW,322,0.0,6.0,92,0.00,,,0.00,VWS V14.01,2013-08-24 03:48:00,
2013-08-23 23:53:00,70.5,68.1,30.03,NNW,330,1.0,6.0,92,0.00,,,0.00,VWS V14.01,2013-08-24 03:53:00,
2013-08-23 23:58:00,70.2,67.8,30.03,NW,313,3.0,7.0,92,0.00,,,0.00,VWS V14.01,2013-08-24 03:58:00,